Location: Little Cypress
(30.1590°N, 93.7750°W)
Time: 09:52:17
(UTC-05:00)

Daily predictions for brighter satellites

Satellite Brightness Start Highest point End
(mag) Time Altitude Azimuth Time Altitude Azimuth Time Altitude Azimuth
Cosmos 2074 Rocket 4.0 20:00:33 10° S 20:06:46 69° E 20:13:01 10° NNE
SPOT 3 Rocket 3.6 20:06:23 10° SSE 20:11:34 89° WSW 20:16:46 10° NNW
Sakura Rocket 3.5 20:07:24 10° WSW 20:12:33 50° SSE 20:16:31 10° E
SJ-6B 3.7 20:10:33 10° SE 20:14:12 33° ENE 20:17:47 10° N
Thor Agena Rocket 4.0 20:12:09 10° NNE 20:17:07 41° E 20:22:04 10° S
NOSS 2-1 (C) 3.5 20:14:36 10° SW 20:18:14 67° WNW 20:21:55 10° NNE
HJ-1C 3.7 20:15:15 10° SSE 20:18:27 45° ENE 20:21:39 10° N
NOSS 2-1 (D) 3.6 20:15:35 10° SW 20:19:13 63° WNW 20:22:53 10° NNE
Sich 1 3.9 20:26:23 10° NNE 20:30:06 29° E 20:33:34 11° SE
ATLAS 2AS CENTAUR R/B 4.3 20:24:36 10° N 20:30:18 21° NE 20:35:15 11° E
Cosmos 1300 3.9 20:27:04 10° SSW 20:30:44 46° W 20:34:26 10° N
Cosmos 1980 4.2 20:35:11 10° SSE 20:40:16 35° ESE 20:45:22 10° NE
Nadezhda 3 Rocket 4.3 20:37:13 10° N 20:43:17 47° E 20:49:21 10° SSE
Meteor 2-14 Rocket 4.5 20:37:38 10° S 20:43:33 57° E 20:49:30 10° NNE
OAO 2 Rocket 3.9 20:40:15 10° WNW 20:45:22 53° N 20:49:18 16° E
Meteor 1-27 4.4 20:41:57 10° SSE 20:47:30 50° E 20:52:58 10° NNE
Cosmos 2333 Rocket 2.1 20:43:02 10° SSW 20:48:41 75° ESE 20:54:20 10° NNE
CZ-2D R/B 3.2 20:45:03 10° S 20:48:50 84° WSW 20:52:39 10° NNW
Cosmos 1633 Rocket 3.6 20:46:32 10° NNE 20:50:35 37° E 20:52:48 22° SE
Meteor 2-2 Rocket 4.2 20:46:13 10° S 20:51:59 81° E 20:57:55 10° N
COSMOS 2428 3.6 20:48:21 10° SW 20:53:55 54° WNW 20:59:32 10° N
Cosmos 1455 2.2 20:50:56 10° S 20:54:38 54° E 20:58:24 10° NNE
Cosmos 2228 Rocket 3.8 20:52:50 22° SE 20:54:47 31° E 20:58:40 10° NNE
Cosmos 1515 Rocket 4.3 20:52:49 21° SE 20:54:58 32° E 20:58:57 10° NNE
Meteor 2-15 Rocket 4.5 20:49:57 10° N 20:56:00 59° E 21:01:44 11° SSE
ERS-2 2.0 20:54:09 14° SSE 20:57:10 85° ENE 21:00:51 10° NNW
NOSS 3-3 (A) 4.5 20:56:22 10° SW 21:02:11 60° WNW 21:08:29 10° NNE
NOSS 3-3 (C) 4.5 20:56:28 10° SW 21:02:17 61° WNW 21:08:35 10° NNE
Cosmos 1844 Rocket 2.7 20:57:31 10° NNW 21:03:10 67° ENE 21:06:44 23° SSE
SL-8 R/B 4.2 21:00:52 10° WSW 21:05:35 60° NW 21:10:20 10° NE
Cosmos 1844 3.9 21:01:10 10° N 21:06:46 54° ENE 21:09:34 29° SE
Cosmos 1892 2.6 21:03:23 10° N 21:07:15 70° E 21:08:58 31° SSE
Cosmos 2219 Rocket 2.7 21:01:43 10° SSW 21:07:18 61° WNW 21:12:53 10° NNE
H-2A R/B 4.0 21:07:50 12° ENE 21:07:50 12° ENE 21:09:11 10° NE
Cosmos 2237 Rocket 2.1 21:02:20 10° S 21:07:50 59° ESE 21:13:21 10° NNE
OAO 3 Copernicus 4.3 21:03:08 10° SW 21:08:04 59° SSE 21:10:19 31° E
ATLAS 2A CENTAUR R/B 4.3 20:48:21 10° W 21:12:08 42° SW 21:16:12 21° SSE
Cosmos 2154 Rocket 4.5 21:06:35 10° SSW 21:12:47 63° W 21:18:58 10° N
Cosmos 1371 Rocket 4.4 21:11:58 30° SE 21:13:45 39° E 21:18:40 10° NNE
YAOGAN 6 2.5 21:12:22 31° S 21:13:58 81° W 21:17:35 10° NNW
Cosmos 1328 Rocket 3.5 21:10:30 10° S 21:14:52 88° W 21:19:19 10° N
USA 267 3.6 21:11:14 10° ENE 21:17:16 39° SE 21:23:17 10° SSW
Resurs 01 Rocket 1.5 21:16:04 31° SSE 21:18:10 82° ENE 21:22:37 10° N
NOAA 11 4.3 21:20:32 37° SE 21:22:27 56° ENE 21:27:49 10° N
Cosmos 2278 Rocket 3.1 21:18:08 10° N 21:23:03 30° ENE 21:23:35 29° ENE
Envisat 4.3 21:20:19 10° SSW 21:25:00 38° W 21:29:43 10° NNW
Cosmos 2251 Rocket 3.8 21:22:40 10° NNW 21:28:00 68° WSW 21:31:05 25° S
ATLAS CENTAUR R/B 3.2 21:26:31 10° WSW 21:29:40 28° WNW 21:32:54 10° N
Cosmos 1470 Rocket 3.6 21:28:24 10° N 21:32:39 61° ENE 21:32:39 61° ENE
ATLAS 3B CENTAUR R/B 3.9 21:21:50 10° W 21:32:52 31° SW 21:36:07 21° S
Cosmos 2341 Rocket 4.4 21:28:20 10° SSW 21:34:38 63° W 21:40:55 10° N
GPS 2-05 Rocket1 4.4 21:31:55 10° W 21:34:13 26° SW 21:34:13 26° SW
Cosmos 2056 Rocket 3.8 21:35:44 49° E 21:35:44 49° E 21:40:31 10° NNE
Cosmos 2098 Rocket 3.7 21:39:29 45° NE 21:39:29 45° NE 21:42:41 10° NNE
deb Centaur AC-2 4.0 21:34:06 10° W 21:38:32 83° S 21:38:52 76° SE
Cosmos 2218 Rocket 3.9 21:37:26 29° S 21:40:55 75° E 21:47:17 10° N
SL-08 R/B 4.5 21:42:01 50° SE 21:43:20 60° E 21:49:36 10° NNE
ASTRO E2 3.9 21:39:43 10° WSW 21:42:08 33° SW 21:42:08 33° SW
Cosmos 1825 3.8 21:44:41 10° N 21:46:31 26° NNE 21:46:31 26° NNE
Cosmos 1624 Rocket 3.8 21:52:47 77° ENE 21:52:47 77° ENE 21:57:42 10° NNE
Cosmos 2366 rocket 3.8 21:51:34 43° S 21:53:47 86° E 22:00:04 10° N
Cosmos 2344 3.9 21:49:37 10° S 21:58:41 43° E 22:04:31 10° NE
SL-16 R/B 3.1 21:59:34 34° NE 21:59:34 34° NE 22:02:49 10° NNE
Cosmos 1933 Rocket 4.1 21:57:06 10° N 22:00:35 54° NNW 22:00:35 54° NNW
ARGOS 3.4 22:07:10 57° NNE 22:07:10 57° NNE 22:11:34 10° N
GEOS 3 Rocket 3.7 22:03:54 10° NNE 22:09:13 73° WNW 22:14:24 10° SW
Cosmos 1339 Rocket 4.4 22:11:40 10° N 22:17:11 73° NNE 22:17:11 73° NNE
ATLAS 2AS CENTAUR R/B 2.8 22:14:23 10° NNW 22:22:04 75° WSW 22:22:42 70° SSW
Meteor 2-10 Rocket 4.2 22:27:11 54° W 22:27:24 55° W 22:33:04 10° N
ATLAS 2A CENTAUR R/B 3.6 22:19:56 10° WSW 22:36:37 61° S 22:36:37 61° S
H-2A R/B 3.6 22:48:28 31° NW 22:48:28 31° NW 22:51:10 10° NNW
NOSS 3-4 (A) 4.4 22:45:22 10° NNW 22:51:01 49° NNE 22:51:01 49° NNE
NOSS 3-4 (C) 4.4 22:45:28 10° NNW 22:51:06 49° NNE 22:51:06 49° NNE
USA 267 4.1 22:54:02 10° NNE 23:00:12 45° NW 23:06:20 10° WSW
Cosmos 2278 Rocket 4.0 23:02:11 10° NW 23:05:28 25° WNW 23:05:28 25° WNW
